Wind_Speed
18 21 23 21 27 28 27 23 18 21 26 23 21 20 19 19 20 19 17 18 18 21
25 28 27 32 30 30 25 19 20 23 23 21 19 20 19 18 19 20 17 18 20 19
26 26 31 26 25 26 23 22 21 27 23 17 16 20 19 20 21 19 21 20 19 16
27 27 28 25 25 26 24 22 21 25 21 21 25 22 22 23 23 24 23 23 24 26
26 29 29 30 34 32 27 19 20 20 20 23 23 23 25 26 25 24 26 26 30 34
24 27 29 30 29 13 16 30 13 19 24 21 20 25 24 27 24 25 28 29 33 37
30 25 23 25 25 31 35 24 11 17 15 19 21 22 25 25 27 28 31 33 35 29
32 27 30 29 29 31 23 16 12 11 16 20 20 20 24 28 28 32 34 29 27 29
31 31 33 35 26 17 17 6 13 14 17 19 17 25 24 28 32 30 28 29 30 28
30 33 38 27 24 19 17 6 11 15 17 17 24 22 27 28 28 28 29 28 28 28
32 36 32 21 23 16 5 13 12 11 17 23 22 25 27 29 29 29 30 26 27 29
32 33 26 18 10 7 9 11 7 18 20 22 25 26 27 29 29 27 27 28 28 23
31 24 17 14 9 7 11 9 15 14 18 22 24 25 26 25 28 28 26 25 23 20
22 17 10 11 10 9 9 8 11 16 20 22 23 25 26 27 21 21 22 23 20 17
Wind_Direction
316 320 319 313 315 314 316 317 316 315 325 326 325 327 329 327 323 321 322 323 318 316
328 331 322 319 318 316 311 300 305 323 323 326 320 320 321 323 323 323 322 316 313 310
327 319 319 310 308 305 297 298 314 325 325 325 315 314 313 316 318 316 321 322 314 305
323 317 313 304 296 299 305 312 312 325 319 315 317 320 318 316 314 314 313 308 307 308
326 323 313 304 295 296 297 297 320 306 302 309 312 316 313 315 315 313 313 310 311 315
335 330 320 312 308 283 256 290 310 295 303 304 309 313 312 312 303 303 307 310 312 312
330 331 322 320 307 306 293 302 288 278 287 307 311 309 309 307 304 306 307 310 312 314
336 335 330 333 320 320 299 292 289 291 315 310 310 311 310 307 305 311 312 314 313 316
331 327 333 334 320 302 288 273 290 303 314 307 311 313 309 308 313 317 318 318 316 316
326 331 335 331 322 302 301 305 286 322 307 309 315 312 312 313 317 318 319 316 316 316
327 331 336 330 320 295 246 284 311 299 316 317 315 319 323 320 320 319 317 315 317 317
330 331 335 330 328 337 320 310 299 314 312 318 327 329 324 323 322 321 320 320 324 327
328 328 328 323 304 321 316 299 302 311 320 330 333 332 331 331 325 326 334 334 336 338
327 326 317 317 318 316 302 307 315 323 331 333 335 336 338 337 337 340 334 341 347 346
Height
1548 1546 1544 1540 1536 1534 1530 1526 1524 1521 1517 1514 1511 1508 1505 1504 1502 1500 1495 1494 1492 1489
1544 1541 1539 1536 1532 1528 1525 1522 1520 1515 1511 1510 1508 1505 1501 1499 1497 1495 1492 1491 1487 1484
1541 1538 1534 1531 1527 1524 1521 1518 1515 1512 1509 1504 1500 1500 1498 1495 1492 1489 1486 1485 1482 1480
1538 1534 1530 1527 1524 1521 1518 1515 1512 1507 1504 1503 1501 1497 1494 1493 1488 1485 1481 1479 1477 1474
1534 1531 1527 1523 1519 1515 1511 1509 1507 1504 1499 1497 1495 1493 1491 1489 1484 1480 1476 1472 1469 1466
1530 1526 1523 1518 1514 1511 1505 1502 1498 1500 1500 1493 1490 1488 1487 1484 1479 1475 1471 1466 1462 1458
1525 1521 1518 1514 1509 1505 1501 1497 1493 1494 1490 1490 1485 1484 1481 1478 1474 1469 1464 1459 1455 1450
1520 1516 1513 1509 1504 1499 1496 1493 1492 1491 1488 1485 1481 1479 1477 1473 1468 1462 1457 1452 1448 1445
1514 1510 1506 1501 1497 1494 1490 1488 1489 1486 1484 1480 1477 1475 1471 1466 1460 1455 1450 1445 1441 1437
1509 1504 1499 1495 1491 1488 1486 1484 1483 1482 1480 1477 1473 1469 1465 1460 1454 1449 1444 1439 1435 1430
1504 1499 1494 1490 1486 1482 1481 1481 1481 1478 1476 1473 1469 1465 1459 1453 1448 1444 1439 1434 1429 1424
1498 1494 1489 1485 1482 1480 1480 1478 1478 1476 1472 1469 1464 1458 1453 1447 1442 1436 1432 1427 1422 1418
1493 1489 1486 1482 1480 1479 1477 1476 1475 1471 1468 1464 1459 1454 1449 1443 1435 1430 1425 1422 1417 1413
1489 1485 1482 1480 1478 1476 1475 1473 1471 1468 1464 1460 1456 1450 1445 1438 1432 1427 1423 1418 1414 1411